User: anonymous   Login
Location: Unspecified
(0.0000°N, 0.0000°E)
Time: 07:20:28
(UTC+00:00)
Language:

USA 8 - Orbit

View from above orbital plane
View from above orbital plane
View from above satellite
View from above satellite

Ground track
Ground track

The orbit data is extracted from the following two-line orbital elements,

1 15543U 85010B   17228.66895118 0.00000000  00000-0  00000-0 0    09
2 15543  17.5190 348.1241 0138051 324.3671  34.7309  0.99819631    02
Epoch (UTC): 16 August 2017 16:03:17
Eccentricity: 0.0138051
inclination: 17.5190°
perigee height: 35329 km
apogee height: 36497 km
right ascension of ascending node: 348.1241°
argument of perigee: 324.3671°
revolutions per day: 0.99819631
mean anomaly at epoch: 34.7309°
orbit number at epoch: 0

The dashed part of the orbit path shows where the satellite is in the earth's shadow,  

DLR